Time,TemperatureF,DewpointF,PressureIn,WindDirection,WindDirectionDegrees,WindSpeedMPH,WindSpeedGustMPH,Humidity,HourlyPrecipIn,Conditions,Clouds,dailyrainin,SoftwareType,DateUTC
2015-08-03 00:00:00,65.1,0.0,29.79,WNW,292,0.0,0.0,0,0.00,,,0.00,VWS V14.01,2015-08-03 04:00:00,
2015-08-03 00:30:00,67.5,37.4,29.78,WNW,292,0.0,0.0,33,0.00,,,0.00,VWS V14.01,2015-08-03 04:30:00,
2015-08-03 01:00:00,68.9,45.5,29.78,WNW,292,0.0,0.0,43,0.00,,,0.00,VWS V14.01,2015-08-03 05:00:00,
2015-08-03 01:30:00,67.6,28.5,29.77,WNW,292,0.0,0.0,23,0.00,,,0.00,VWS V14.01,2015-08-03 05:30:00,
2015-08-03 02:00:00,65.1,0.0,29.77,WNW,292,0.0,0.0,0,0.00,,,0.00,VWS V14.01,2015-08-03 06:00:00,
2015-08-03 02:30:00,62.7,0.0,29.77,WNW,292,0.0,0.0,0,0.00,,,0.00,VWS V14.01,2015-08-03 06:30:00,
2015-08-03 03:00:00,62.1,0.0,29.77,WNW,292,0.0,0.0,0,0.00,,,0.00,VWS V14.01,2015-08-03 07:00:00,
2015-08-03 03:30:00,62.9,0.0,29.76,WNW,292,0.0,1.0,0,0.00,,,0.00,VWS V14.01,2015-08-03 07:30:00,
2015-08-03 05:00:00,61.6,0.0,29.75,WNW,292,0.0,3.0,0,0.00,,,0.00,VWS V14.01,2015-08-03 09:00:00,
2015-08-03 05:30:00,60.8,0.0,29.75,WNW,292,0.0,0.0,0,0.00,,,0.00,VWS V14.01,2015-08-03 09:30:00,
2015-08-03 06:30:00,59.6,0.0,29.75,WNW,292,0.0,2.0,0,0.00,,,0.00,VWS V14.01,2015-08-03 10:30:00,
2015-08-03 07:00:00,59.1,0.0,29.75,WNW,292,0.0,2.0,0,0.00,,,0.00,VWS V14.01,2015-08-03 11:00:00,
2015-08-03 07:30:00,60.7,0.0,29.75,WNW,292,0.0,1.0,0,0.00,,,0.00,VWS V14.01,2015-08-03 11:30:00,
2015-08-03 08:30:00,69.0,-9.3,29.77,SE,135,0.0,5.0,4,0.00,,,0.00,VWS V14.01,2015-08-03 12:30:00,
2015-08-03 09:30:00,72.5,44.8,29.75,NW,315,1.0,6.0,37,0.00,,,0.00,VWS V14.01,2015-08-03 13:30:00,
2015-08-03 10:00:00,74.6,46.6,29.74,NW,315,1.0,7.0,37,0.00,,,0.00,VWS V14.01,2015-08-03 14:00:00,
2015-08-03 11:30:00,79.8,62.2,29.72,WNW,292,1.0,8.0,55,0.00,,,0.00,VWS V14.01,2015-08-03 15:30:00,
2015-08-03 12:00:00,81.6,63.9,29.72,NW,315,1.0,5.0,55,0.00,,,0.00,VWS V14.01,2015-08-03 16:00:00,
2015-08-03 12:30:00,82.7,65.4,29.72,West,270,2.0,9.0,56,0.00,,,0.00,VWS V14.01,2015-08-03 16:30:00,
2015-08-03 13:00:00,84.5,67.1,29.72,NW,315,2.0,6.0,56,0.00,,,0.00,VWS V14.01,2015-08-03 17:00:00,
2015-08-03 13:30:00,84.7,67.8,29.72,WNW,292,2.0,9.0,57,0.00,,,0.00,VWS V14.01,2015-08-03 17:30:00,
2015-08-03 14:00:00,84.2,67.3,29.72,WNW,292,2.0,6.0,57,0.00,,,0.00,VWS V14.01,2015-08-03 18:00:00,
2015-08-03 14:30:00,85.5,67.5,29.71,West,270,2.0,6.0,55,0.00,,,0.00,VWS V14.01,2015-08-03 18:30:00,
2015-08-03 15:00:00,85.1,67.1,29.70,WNW,292,3.0,8.0,55,0.00,,,0.00,VWS V14.01,2015-08-03 19:00:00,
2015-08-03 15:11:00,85.3,65.7,29.69,WNW,292,2.0,8.0,52,0.00,,,0.00,VWS V14.01,2015-08-03 19:11:00,
2015-08-03 15:16:00,81.2,65.0,29.70,West,265,9.0,9.0,58,0.00,,,0.00,VWS V14.01,2015-08-03 19:16:00,
2015-08-03 15:21:00,80.3,64.2,29.70,West,273,0.0,9.0,58,0.00,,,0.00,VWS V14.01,2015-08-03 19:21:00,
2015-08-03 15:26:00,80.1,61.4,29.69,West,273,0.0,9.0,53,0.00,,,0.00,VWS V14.01,2015-08-03 19:26:00,
2015-08-03 15:31:00,80.1,63.5,29.69,West,273,2.0,2.0,57,0.00,,,0.00,VWS V14.01,2015-08-03 19:31:00,
2015-08-03 15:36:00,80.6,64.0,29.69,West,273,1.0,4.0,57,0.00,,,0.00,VWS V14.01,2015-08-03 19:36:00,
2015-08-03 15:41:00,81.2,63.5,29.68,West,273,0.0,4.0,55,0.00,,,0.00,VWS V14.01,2015-08-03 19:41:00,
2015-08-03 15:46:00,81.8,64.1,29.69,West,274,0.0,4.0,55,0.00,,,0.00,VWS V14.01,2015-08-03 19:46:00,
2015-08-03 15:51:00,82.1,64.9,29.69,West,279,1.0,5.0,56,0.00,,,0.00,VWS V14.01,2015-08-03 19:51:00,
2015-08-03 15:56:00,82.0,65.3,29.70,West,261,7.0,7.0,57,0.00,,,0.00,VWS V14.01,2015-08-03 19:56:00,
2015-08-03 16:01:00,82.5,65.8,29.70,ENE,70,0.0,4.0,57,0.00,,,0.00,VWS V14.01,2015-08-03 20:01:00,
2015-08-03 16:06:00,83.2,66.4,29.70,NNE,23,2.0,5.0,57,0.00,,,0.00,VWS V14.01,2015-08-03 20:06:00,
2015-08-03 16:11:00,83.3,66.0,29.70,NW,310,3.0,5.0,56,0.00,,,0.00,VWS V14.01,2015-08-03 20:11:00,
2015-08-03 16:16:00,83.5,66.7,29.70,WNW,294,0.0,5.0,57,0.00,,,0.00,VWS V14.01,2015-08-03 20:16:00,
2015-08-03 16:21:00,84.1,67.2,29.70,WNW,294,0.0,5.0,57,0.00,,,0.00,VWS V14.01,2015-08-03 20:21:00,
2015-08-03 16:26:00,84.1,67.2,29.70,SE,139,1.0,7.0,57,0.00,,,0.00,VWS V14.01,2015-08-03 20:26:00,
2015-08-03 16:31:00,83.4,66.6,29.70,SSE,150,2.0,5.0,57,0.00,,,0.00,VWS V14.01,2015-08-03 20:31:00,
2015-08-03 16:36:00,82.2,64.4,29.70,SE,135,0.0,5.0,55,0.00,,,0.00,VWS V14.01,2015-08-03 20:36:00,
2015-08-03 16:41:00,81.6,63.9,29.70,SW,234,0.0,5.0,55,0.00,,,0.00,VWS V14.01,2015-08-03 20:41:00,
2015-08-03 16:46:00,81.7,64.0,29.70,SW,234,0.0,5.0,55,0.00,,,0.00,VWS V14.01,2015-08-03 20:46:00,
2015-08-03 16:51:00,82.1,64.3,29.70,SW,234,0.0,5.0,55,0.00,,,0.00,VWS V14.01,2015-08-03 20:51:00,
2015-08-03 16:56:00,82.6,63.8,29.70,SW,234,0.0,5.0,53,0.00,,,0.00,VWS V14.01,2015-08-03 20:56:00,
2015-08-03 17:01:00,82.9,65.1,29.70,SW,235,0.0,0.0,55,0.00,,,0.00,VWS V14.01,2015-08-03 21:01:00,
2015-08-03 17:06:00,83.2,65.4,29.70,West,281,1.0,1.0,55,0.00,,,0.00,VWS V14.01,2015-08-03 21:06:00,
2015-08-03 17:11:00,83.0,66.2,29.70,West,271,0.0,3.0,57,0.00,,,0.00,VWS V14.01,2015-08-03 21:11:00,
2015-08-03 17:16:00,83.0,66.2,29.70,WNW,288,2.0,4.0,57,0.00,,,0.00,VWS V14.01,2015-08-03 21:16:00,
2015-08-03 17:21:00,82.2,65.5,29.69,NW,307,4.0,5.0,57,0.00,,,0.00,VWS V14.01,2015-08-03 21:21:00,
2015-08-03 17:26:00,81.7,65.5,29.69,NW,307,0.0,5.0,58,0.00,,,0.00,VWS V14.01,2015-08-03 21:26:00,
2015-08-03 17:31:00,81.5,65.3,29.70,NW,307,0.0,0.0,58,0.00,,,0.00,VWS V14.01,2015-08-03 21:31:00,
2015-08-03 17:36:00,81.4,64.7,29.70,NW,307,0.0,1.0,57,0.00,,,0.00,VWS V14.01,2015-08-03 21:36:00,
2015-08-03 17:41:00,81.4,64.7,29.70,NW,307,0.0,1.0,57,0.00,,,0.00,VWS V14.01,2015-08-03 21:41:00,
2015-08-03 17:46:00,81.2,64.5,29.70,NW,307,0.0,2.0,57,0.00,,,0.00,VWS V14.01,2015-08-03 21:46:00,
2015-08-03 17:51:00,81.1,64.4,29.70,NW,307,1.0,2.0,57,0.00,,,0.00,VWS V14.01,2015-08-03 21:51:00,
2015-08-03 17:56:00,80.8,64.2,29.70,NW,307,2.0,4.0,57,0.00,,,0.00,VWS V14.01,2015-08-03 21:56:00,
2015-08-03 18:01:00,80.4,64.3,29.70,West,267,3.0,6.0,58,0.00,,,0.00,VWS V14.01,2015-08-03 22:01:00,
2015-08-03 18:06:00,80.4,63.8,29.70,West,268,5.0,6.0,57,0.00,,,0.00,VWS V14.01,2015-08-03 22:06:00,
2015-08-03 18:11:00,80.8,64.7,29.70,West,267,4.0,6.0,58,0.00,,,0.00,VWS V14.01,2015-08-03 22:11:00,
2015-08-03 18:16:00,81.2,65.0,29.70,WNW,284,2.0,6.0,58,0.00,,,0.00,VWS V14.01,2015-08-03 22:16:00,
2015-08-03 18:21:00,81.4,65.2,29.71,WNW,284,0.0,6.0,58,0.00,,,0.00,VWS V14.01,2015-08-03 22:21:00,
2015-08-03 18:26:00,82.1,65.4,29.71,WNW,284,1.0,6.0,57,0.00,,,0.00,VWS V14.01,2015-08-03 22:26:00,
2015-08-03 18:31:00,81.7,64.0,29.72,SSE,153,2.0,2.0,55,0.00,,,0.00,VWS V14.01,2015-08-03 22:31:00,
2015-08-03 18:36:00,80.7,62.5,29.72,North,355,0.0,3.0,54,0.00,,,0.00,VWS V14.01,2015-08-03 22:36:00,
2015-08-03 18:41:00,80.1,62.5,29.71,NNW,342,0.0,3.0,55,0.00,,,0.00,VWS V14.01,2015-08-03 22:41:00,
2015-08-03 18:46:00,80.0,62.4,29.71,SSW,203,0.0,3.0,55,0.00,,,0.00,VWS V14.01,2015-08-03 22:46:00,
2015-08-03 18:51:00,79.5,63.0,29.71,SSW,192,0.0,3.0,57,0.00,,,0.00,VWS V14.01,2015-08-03 22:51:00,
2015-08-03 18:56:00,79.0,62.5,29.71,SSW,193,0.0,3.0,57,0.00,,,0.00,VWS V14.01,2015-08-03 22:56:00,
2015-08-03 19:01:00,78.6,62.1,29.71,SSW,194,0.0,0.0,57,0.00,,,0.00,VWS V14.01,2015-08-03 23:01:00,
2015-08-03 19:06:00,78.4,61.9,29.71,SSW,194,0.0,0.0,57,0.00,,,0.00,VWS V14.01,2015-08-03 23:06:00,
2015-08-03 19:11:00,78.2,62.2,29.72,SSW,194,1.0,1.0,58,0.00,,,0.00,VWS V14.01,2015-08-03 23:11:00,
2015-08-03 19:16:00,77.9,62.0,29.72,SSE,155,0.0,3.0,58,0.00,,,0.00,VWS V14.01,2015-08-03 23:16:00,
2015-08-03 19:21:00,77.6,61.7,29.71,SSE,155,0.0,3.0,58,0.00,,,0.00,VWS V14.01,2015-08-03 23:21:00,
2015-08-03 19:26:00,77.1,61.2,29.72,SSE,155,0.0,3.0,58,0.00,,,0.00,VWS V14.01,2015-08-03 23:26:00,
2015-08-03 19:31:00,76.7,60.8,29.72,SSE,155,0.0,0.0,58,0.00,,,0.00,VWS V14.01,2015-08-03 23:31:00,
2015-08-03 19:36:00,76.4,60.1,29.71,SSE,155,0.0,0.0,57,0.00,,,0.00,VWS V14.01,2015-08-03 23:36:00,
2015-08-03 19:41:00,76.3,60.0,29.72,SSE,155,0.0,0.0,57,0.00,,,0.00,VWS V14.01,2015-08-03 23:41:00,
2015-08-03 19:46:00,75.9,59.1,29.72,North,355,0.0,1.0,56,0.00,,,0.00,VWS V14.01,2015-08-03 23:46:00,
2015-08-03 19:51:00,75.7,58.9,29.71,North,355,0.0,1.0,56,0.00,,,0.00,VWS V14.01,2015-08-03 23:51:00,
2015-08-03 19:56:00,75.4,58.6,29.71,North,355,0.0,1.0,56,0.00,,,0.00,VWS V14.01,2015-08-03 23:56:00,
2015-08-03 20:01:00,75.2,57.9,29.72,North,355,0.0,0.0,55,0.00,,,0.00,VWS V14.01,2015-08-04 00:01:00,
2015-08-03 20:06:00,75.1,57.3,29.71,North,355,0.0,0.0,54,0.00,,,0.00,VWS V14.01,2015-08-04 00:06:00,
2015-08-03 20:11:00,74.9,56.6,29.71,North,355,0.0,0.0,53,0.00,,,0.00,VWS V14.01,2015-08-04 00:11:00,
2015-08-03 20:16:00,74.6,55.3,29.71,North,355,0.0,0.0,51,0.00,,,0.00,VWS V14.01,2015-08-04 00:16:00,
2015-08-03 20:21:00,74.2,53.8,29.72,North,355,0.0,2.0,49,0.00,,,0.00,VWS V14.01,2015-08-04 00:21:00,
2015-08-03 20:26:00,73.9,51.8,29.72,North,355,0.0,2.0,46,0.00,,,0.00,VWS V14.01,2015-08-04 00:26:00,
2015-08-03 20:31:00,73.6,49.1,29.73,North,355,1.0,1.0,42,0.00,,,0.00,VWS V14.01,2015-08-04 00:31:00,
2015-08-03 20:36:00,72.8,41.3,29.76,West,277,17.0,17.0,32,0.00,,,0.00,VWS V14.01,2015-08-04 00:36:00,
2015-08-03 20:41:00,69.5,25.5,29.75,West,275,20.0,20.0,19,0.01,,,0.01,VWS V14.01,2015-08-04 00:41:00,
2015-08-03 20:46:00,68.3,0.0,29.76,West,279,6.0,22.0,0,0.02,,,0.02,VWS V14.01,2015-08-04 00:46:00,
2015-08-03 20:51:00,67.8,0.0,29.77,West,261,2.0,22.0,0,0.02,,,0.02,VWS V14.01,2015-08-04 00:51:00,
2015-08-03 20:56:00,67.6,0.0,29.76,West,261,0.0,22.0,0,0.02,,,0.02,VWS V14.01,2015-08-04 00:56:00,
2015-08-03 21:01:00,67.5,0.0,29.75,West,261,0.0,0.0,0,0.02,,,0.02,VWS V14.01,2015-08-04 01:01:00,
2015-08-03 21:06:00,67.4,0.0,29.75,West,261,0.0,0.0,0,0.02,,,0.02,VWS V14.01,2015-08-04 01:06:00,
2015-08-03 21:11:00,67.2,0.0,29.75,West,261,0.0,0.0,0,0.02,,,0.02,VWS V14.01,2015-08-04 01:11:00,
2015-08-03 21:16:00,67.0,0.0,29.75,West,261,2.0,3.0,0,0.02,,,0.02,VWS V14.01,2015-08-04 01:16:00,
2015-08-03 21:21:00,66.6,0.0,29.75,West,261,3.0,3.0,0,0.02,,,0.02,VWS V14.01,2015-08-04 01:21:00,
2015-08-03 21:26:00,66.5,0.0,29.76,West,261,0.0,3.0,0,0.02,,,0.02,VWS V14.01,2015-08-04 01:26:00,
2015-08-03 21:31:00,66.4,0.0,29.76,West,261,3.0,3.0,0,0.02,,,0.02,VWS V14.01,2015-08-04 01:31:00,
2015-08-03 21:36:00,66.4,0.0,29.76,West,261,0.0,3.0,0,0.02,,,0.02,VWS V14.01,2015-08-04 01:36:00,
2015-08-03 21:41:00,66.5,0.0,29.76,West,261,0.0,3.0,0,0.02,,,0.02,VWS V14.01,2015-08-04 01:41:00,
2015-08-03 21:46:00,66.6,0.0,29.76,West,261,0.0,3.0,0,0.02,,,0.02,VWS V14.01,2015-08-04 01:46:00,
2015-08-03 21:51:00,66.8,0.0,29.76,West,261,0.0,3.0,0,0.02,,,0.02,VWS V14.01,2015-08-04 01:51:00,
2015-08-03 21:56:00,66.8,0.0,29.76,West,261,0.0,3.0,0,0.02,,,0.02,VWS V14.01,2015-08-04 01:56:00,
2015-08-03 22:01:00,66.7,0.0,29.76,West,261,0.0,0.0,0,0.00,,,0.02,VWS V14.01,2015-08-04 02:01:00,
2015-08-03 22:06:00,66.8,0.0,29.76,West,261,0.0,3.0,0,0.00,,,0.02,VWS V14.01,2015-08-04 02:06:00,
2015-08-03 22:11:00,66.7,0.0,29.77,West,261,2.0,4.0,0,0.00,,,0.02,VWS V14.01,2015-08-04 02:11:00,
2015-08-03 22:16:00,66.7,0.0,29.78,West,269,1.0,4.0,0,0.00,,,0.02,VWS V14.01,2015-08-04 02:16:00,
2015-08-03 22:21:00,66.6,0.0,29.78,West,267,2.0,4.0,0,0.01,,,0.03,VWS V14.01,2015-08-04 02:21:00,
2015-08-03 22:26:00,66.6,0.0,29.77,West,268,0.0,4.0,0,0.01,,,0.03,VWS V14.01,2015-08-04 02:26:00,
2015-08-03 22:31:00,66.7,0.0,29.77,West,268,0.0,0.0,0,0.01,,,0.03,VWS V14.01,2015-08-04 02:31:00,
2015-08-03 22:36:00,66.7,0.0,29.77,West,268,0.0,0.0,0,0.01,,,0.03,VWS V14.01,2015-08-04 02:36:00,
2015-08-03 22:41:00,66.7,0.0,29.77,West,268,0.0,0.0,0,0.01,,,0.03,VWS V14.01,2015-08-04 02:41:00,
2015-08-03 22:46:00,66.8,0.0,29.77,West,268,0.0,0.0,0,0.01,,,0.03,VWS V14.01,2015-08-04 02:46:00,
2015-08-03 22:51:00,66.8,0.0,29.78,West,268,0.0,0.0,0,0.01,,,0.03,VWS V14.01,2015-08-04 02:51:00,
2015-08-03 22:56:00,66.9,0.0,29.79,West,268,3.0,3.0,0,0.01,,,0.03,VWS V14.01,2015-08-04 02:56:00,
2015-08-03 23:01:00,66.8,0.0,29.81,NW,305,2.0,5.0,0,0.01,,,0.03,VWS V14.01,2015-08-04 03:01:00,
2015-08-03 23:06:00,66.8,0.0,29.80,West,276,2.0,6.0,0,0.01,,,0.03,VWS V14.01,2015-08-04 03:06:00,
2015-08-03 23:11:00,66.7,0.0,29.80,West,275,1.0,6.0,0,0.02,,,0.04,VWS V14.01,2015-08-04 03:11:00,
2015-08-03 23:16:00,66.8,0.0,29.79,West,276,2.0,6.0,0,0.02,,,0.04,VWS V14.01,2015-08-04 03:16:00,
2015-08-03 23:21:00,66.8,0.0,29.78,West,276,0.0,6.0,0,0.03,,,0.05,VWS V14.01,2015-08-04 03:21:00,